• In Deutschland
  • Länderverzeichnis
  • Für 7 Tage
  • Wassertemperatur
  • Satellitenkarten
  • Wetterkarte
  • Widgets
  • user-avatar
    Anmelden

    Stündliche Wetter Darmstadt

    Heute, 22 September, Samstag

    Zeit Temperatur Niederschläge Wind Luftdruck Luftfeuchtigkeit
    00:00 +12°C° 0 mm 4 m/S 751 mmHg 61%
    01:00 +12°C° 0 mm 3 m/S 752 mmHg 62%
    02:00 +12°C° 0 mm 3 m/S 752 mmHg 64%
    03:00 +11°C° 0 mm 3 m/S 752 mmHg 66%
    04:00 +11°C° 0 mm 3 m/S 753 mmHg 68%
    05:00 +11°C° 0 mm 3 m/S 753 mmHg 70%
    06:00 +11°C° 0 mm 3 m/S 753 mmHg 72%
    07:00 +11°C° 0 mm 3 m/S 753 mmHg 74%
    08:00 +12°C° 0 mm 3 m/S 753 mmHg 69%
    09:00 +13°C° 0 mm 3 m/S 753 mmHg 64%
    10:00 +16°C° 0 mm 3 m/S 753 mmHg 59%
    11:00 +15°C° 0 mm 4 m/S 753 mmHg 55%
    12:00 +17°C° 0 mm 4 m/S 753 mmHg 51%
    13:00 +18°C° 0 mm 4 m/S 753 mmHg 48%
    14:00 +18°C° 0 mm 4 m/S 753 mmHg 48%
    15:00 +18°C° 0 mm 4 m/S 752 mmHg 48%
    16:00 +18°C° 0 mm 4 m/S 752 mmHg 48%
    17:00 +17°C° 0 mm 3 m/S 752 mmHg 51%
    18:00 +16°C° 0 mm 3 m/S 752 mmHg 55%
    19:00 +15°C° 0 mm 2 m/S 752 mmHg 58%
    20:00 +15°C° 0.1 mm 2 m/S 752 mmHg 62%
    21:00 +14°C° 0.1 mm 2 m/S 752 mmHg 65%
    22:00 +14°C° 0.1 mm 2 m/S 752 mmHg 69%
    23:00 +14°C° 0.2 mm 2 m/S 752 mmHg 73%

    Morgen, 23 September, Sonntag

    Zeit Temperatur Niederschläge Wind Luftdruck Luftfeuchtigkeit
    00:00 +13°C° 0.2 mm 2 m/S 751 mmHg 77%
    01:00 +13°C° 0.2 mm 2 m/S 751 mmHg 80%
    02:00 +13°C° 0.6 mm 2 m/S 750 mmHg 82%
    03:00 +13°C° 0.6 mm 2 m/S 749 mmHg 83%
    04:00 +13°C° 0.6 mm 2 m/S 748 mmHg 84%
    05:00 +13°C° 0.8 mm 2 m/S 748 mmHg 86%
    06:00 +14°C° 0.8 mm 2 m/S 747 mmHg 87%
    07:00 +13°C° 0.8 mm 3 m/S 747 mmHg 88%
    08:00 +14°C° 1.2 mm 3 m/S 747 mmHg 89%
    09:00 +16°C° 1.2 mm 3 m/S 747 mmHg 90%
    10:00 +17°C° 1.2 mm 4 m/S 746 mmHg 91%
    11:00 +17°C° 1.2 mm 4 m/S 746 mmHg 90%
    12:00 +17°C° 1.2 mm 5 m/S 745 mmHg 89%
    13:00 +17°C° 1.2 mm 5 m/S 745 mmHg 89%
    14:00 +19°C° 0.3 mm 6 m/S 744 mmHg 86%
    15:00 +20°C° 0.3 mm 8 m/S 743 mmHg 83%
    16:00 +21°C° 0.3 mm 9 m/S 742 mmHg 80%
    17:00 +19°C° 3.6 mm 9 m/S 742 mmHg 80%
    18:00 +17°C° 3.6 mm 8 m/S 743 mmHg 81%
    19:00 +16°C° 3.6 mm 8 m/S 743 mmHg 82%
    20:00 +14°C° 0.3 mm 7 m/S 745 mmHg 82%
    21:00 +11°C° 0.3 mm 7 m/S 748 mmHg 81%
    22:00 +9°C° 0.3 mm 6 m/S 750 mmHg 81%
    23:00 +9°C° 0 mm 5 m/S 751 mmHg 81%

    übermorgen, 24 September, Montag

    Zeit Temperatur Niederschläge Wind Luftdruck Luftfeuchtigkeit
    00:00 +9°C° 0 mm 5 m/S 753 mmHg 81%
    01:00 +10°C° 0 mm 4 m/S 754 mmHg 80%
    02:00 +9°C° 0 mm 3 m/S 755 mmHg 82%
    03:00 +9°C° 0 mm 3 m/S 756 mmHg 84%
    04:00 +8°C° 0 mm 3 m/S 758 mmHg 85%
    05:00 +8°C° 0 mm 3 m/S 758 mmHg 85%
    06:00 +8°C° 0 mm 2 m/S 759 mmHg 85%
    07:00 +8°C° 0 mm 2 m/S 759 mmHg 85%
    08:00 +9°C° 0 mm 3 m/S 760 mmHg 76%
    09:00 +11°C° 0 mm 3 m/S 761 mmHg 68%
    10:00 +12°C° 0 mm 3 m/S 761 mmHg 59%
    11:00 +13°C° 0 mm 3 m/S 761 mmHg 53%
    12:00 +14°C° 0 mm 3 m/S 761 mmHg 47%
    13:00 +16°C° 0 mm 3 m/S 761 mmHg 41%
    14:00 +16°C° 0 mm 3 m/S 761 mmHg 41%
    15:00 +16°C° 0 mm 3 m/S 761 mmHg 41%
    16:00 +16°C° 0 mm 3 m/S 761 mmHg 41%
    17:00 +14°C° 0 mm 3 m/S 762 mmHg 48%
    18:00 +13°C° 0 mm 2 m/S 762 mmHg 54%
    19:00 +12°C° 0 mm 2 m/S 762 mmHg 61%
    20:00 +10°C° 0 mm 2 m/S 763 mmHg 65%
    21:00 +10°C° 0 mm 2 m/S 763 mmHg 69%
    22:00 +9°C° 0 mm 2 m/S 764 mmHg 73%
    23:00 +9°C° 0 mm 2 m/S 764 mmHg 75%

    25 September, Dienstag

    Zeit Temperatur Niederschläge Wind Luftdruck Luftfeuchtigkeit
    00:00 +9°C° 0 mm 1 m/S 764 mmHg 77%
    01:00 +9°C° 0 mm 1 m/S 765 mmHg 80%
    02:00 +8°C° 0 mm 1 m/S 765 mmHg 81%
    03:00 +8°C° 0 mm 1 m/S 765 mmHg 82%
    04:00 +8°C° 0 mm 1 m/S 765 mmHg 82%
    05:00 +8°C° 0 mm 1 m/S 765 mmHg 81%
    06:00 +7°C° 0 mm 1 m/S 765 mmHg 81%
    07:00 +7°C° 0 mm 1 m/S 765 mmHg 80%
    08:00 +8°C° 0 mm 2 m/S 765 mmHg 70%
    09:00 +10°C° 0 mm 2 m/S 766 mmHg 61%
    10:00 +12°C° 0 mm 3 m/S 766 mmHg 52%
    11:00 +13°C° 0 mm 3 m/S 765 mmHg 48%
    12:00 +14°C° 0 mm 3 m/S 765 mmHg 44%
    13:00 +16°C° 0 mm 3 m/S 765 mmHg 40%
    14:00 +16°C° 0 mm 3 m/S 764 mmHg 40%
    15:00 +16°C° 0 mm 3 m/S 764 mmHg 40%
    16:00 +16°C° 0 mm 3 m/S 763 mmHg 41%
    17:00 +14°C° 0 mm 3 m/S 763 mmHg 45%
    18:00 +13°C° 0 mm 2 m/S 763 mmHg 50%
    19:00 +12°C° 0 mm 2 m/S 763 mmHg 55%
    20:00 +10°C° 0 mm 2 m/S 764 mmHg 56%
    21:00 +9°C° 0 mm 2 m/S 764 mmHg 57%
    22:00 +9°C° 0 mm 2 m/S 764 mmHg 58%
    23:00 +8°C° 0 mm 2 m/S 763 mmHg 59%

    26 September, Mittwoch

    Zeit Temperatur Niederschläge Wind Luftdruck Luftfeuchtigkeit
    00:00 +8°C° 0 mm 2 m/S 763 mmHg 60%
    01:00 +7°C° 0 mm 2 m/S 763 mmHg 61%
    02:00 +7°C° 0 mm 2 m/S 763 mmHg 62%
    03:00 +7°C° 0 mm 1 m/S 762 mmHg 63%
    04:00 +7°C° 0 mm 1 m/S 762 mmHg 65%
    05:00 +7°C° 0 mm 1 m/S 762 mmHg 65%
    06:00 +7°C° 0 mm 1 m/S 762 mmHg 66%
    07:00 +7°C° 0 mm 1 m/S 762 mmHg 67%
    08:00 +9°C° 0 mm 1 m/S 762 mmHg 60%
    09:00 +11°C° 0 mm 1 m/S 762 mmHg 53%
    10:00 +13°C° 0 mm 1 m/S 761 mmHg 45%
    11:00 +15°C° 0 mm 1 m/S 761 mmHg 41%
    12:00 +18°C° 0 mm 1 m/S 761 mmHg 37%
    13:00 +20°C° 0 mm 1 m/S 760 mmHg 33%
    14:00 +20°C° 0 mm 1 m/S 760 mmHg 33%
    15:00 +20°C° 0 mm 1 m/S 759 mmHg 34%
    16:00 +20°C° 0 mm 1 m/S 759 mmHg 34%
    17:00 +18°C° 0 mm 1 m/S 759 mmHg 39%
    18:00 +16°C° 0 mm 1 m/S 759 mmHg 44%
    19:00 +13°C° 0 mm 0 m/S 759 mmHg 49%
    20:00 +13°C° 0 mm 1 m/S 759 mmHg 51%
    21:00 +12°C° 0 mm 1 m/S 759 mmHg 52%
    22:00 +12°C° 0 mm 1 m/S 760 mmHg 54%
    23:00 +12°C° 0 mm 1 m/S 759 mmHg 56%

    27 September, Donnerstag

    Zeit Temperatur Niederschläge Wind Luftdruck Luftfeuchtigkeit
    00:00 +11°C° 0 mm 1 m/S 759 mmHg 57%
    01:00 +11°C° 0 mm 1 m/S 759 mmHg 59%
    02:00 +10°C° 0 mm 1 m/S 759 mmHg 61%
    03:00 +10°C° 0 mm 1 m/S 758 mmHg 63%
    04:00 +10°C° 0 mm 1 m/S 758 mmHg 64%
    05:00 +10°C° 0 mm 1 m/S 758 mmHg 65%
    06:00 +10°C° 0 mm 1 m/S 758 mmHg 66%
    07:00 +10°C° 0 mm 1 m/S 758 mmHg 67%
    08:00 +12°C° 0 mm 1 m/S 757 mmHg 61%
    09:00 +14°C° 0 mm 2 m/S 757 mmHg 54%
    10:00 +17°C° 0 mm 2 m/S 757 mmHg 48%
    11:00 +18°C° 0 mm 3 m/S 756 mmHg 45%
    12:00 +20°C° 0 mm 3 m/S 756 mmHg 41%
    13:00 +21°C° 0 mm 3 m/S 756 mmHg 38%
    14:00 +22°C° 0 mm 3 m/S 755 mmHg 40%
    15:00 +22°C° 0 mm 3 m/S 755 mmHg 41%
    16:00 +22°C° 0 mm 3 m/S 754 mmHg 42%
    17:00 +20°C° 0 mm 3 m/S 754 mmHg 49%
    18:00 +18°C° 0 mm 2 m/S 754 mmHg 56%
    19:00 +17°C° 0 mm 2 m/S 754 mmHg 62%
    20:00 +16°C° 0 mm 2 m/S 754 mmHg 65%
    21:00 +15°C° 0 mm 1 m/S 755 mmHg 67%
    22:00 +15°C° 0 mm 1 m/S 755 mmHg 70%
    23:00 +14°C° 0 mm 1 m/S 755 mmHg 73%
    Mehr zeigen